QPF
0.00 0.00 0.00 0.00 0.01 0.00 0.00 0.00 0.00 0.00 0.00 0.00 0.00 0.00 0.00 0.00 0.02 0.05 0.02 0.00 0.00 0.01 0.00 0.00 0.00 0.00 0.00 0.00 0.00 0.02 0.01 0.01 0.01 0.00 0.01 0.00 0.00 0.01 0.01 0.02 0.00 0.00 0.00
0.00 0.00 0.00 0.00 0.00 0.00 0.00 0.00 0.00 0.00 0.00 0.00 0.00 0.01 0.02 0.00 0.05 0.10 0.03 0.01 0.01 0.02 0.00 0.01 0.00 0.00 0.00 0.00 0.00 0.00 0.00 0.00 0.00 0.00 0.01 0.00 0.03 0.01 0.03 0.01 0.00 0.00 0.00
0.03 0.03 0.00 0.00 0.00 0.00 0.00 0.00 0.00 0.00 0.01 0.01 0.04 0.05 0.03 0.10 0.18 0.13 0.09 0.07 0.01 0.06 0.05 0.01 0.00 0.02 0.03 0.01 0.00 0.01 0.01 0.04 0.00 0.01 0.03 0.01 0.00 0.02 0.01 0.00 0.00 0.00 0.00
0.06 0.06 0.05 0.02 0.01 0.02 0.00 0.00 0.00 0.00 0.00 0.00 0.03 0.14 0.14 0.11 0.07 0.19 0.27 0.07 0.01 0.08 0.12 0.05 0.03 0.01 0.02 0.04 0.01 0.02 0.01 0.00 0.00 0.00 0.00 0.01 0.00 0.00 0.00 0.00 0.00 0.00 0.00
0.08 0.08 0.19 0.15 0.05 0.16 0.21 0.14 0.09 0.08 0.05 0.02 0.02 0.13 0.13 0.11 0.09 0.17 0.17 0.05 0.03 0.05 0.05 0.03 0.03 0.11 0.04 0.05 0.05 0.01 0.00 0.00 0.00 0.00 0.00 0.01 0.00 0.00 0.00 0.00 0.00 0.00 0.00
0.05 0.16 0.18 0.19 0.12 0.18 0.10 0.12 0.17 0.23 0.16 0.10 0.12 0.02 0.01 0.00 0.04 0.15 0.08 0.07 0.03 0.05 0.12 0.04 0.01 0.05 0.12 0.08 0.02 0.00 0.00 0.00 0.01 0.01 0.00 0.03 0.01 0.00 0.00 0.00 0.00 0.00 0.00
0.07 0.12 0.22 0.14 0.08 0.05 0.05 0.07 0.11 0.21 0.19 0.13 0.10 0.12 0.07 0.00 0.00 0.00 0.00 0.02 0.02 0.02 0.05 0.02 0.00 0.01 0.03 0.06 0.05 0.00 0.00 0.00 0.01 0.00 0.00 0.00 0.00 0.00 0.00 0.00 0.00 0.00 0.00
0.05 0.05 0.07 0.09 0.11 0.10 0.03 0.03 0.06 0.11 0.10 0.09 0.08 0.12 0.05 0.02 0.00 0.00 0.00 0.00 0.00 0.00 0.00 0.00 0.00 0.00 0.00 0.00 0.00 0.00 0.00 0.00 0.00 0.00 0.00 0.00 0.00 0.00 0.00 0.00 0.00 0.00 0.00
0.13 0.13 0.17 0.16 0.15 0.13 0.06 0.00 0.02 0.06 0.06 0.08 0.10 0.09 0.04 0.01 0.00 0.00 0.01 0.03 0.01 0.00 0.00 0.00 0.00 0.00 0.00 0.00 0.00 0.00 0.00 0.00 0.00 0.00 0.00 0.00 0.00 0.00 0.00 0.00 0.00 0.00 0.00
0.18 0.17 0.12 0.15 0.15 0.08 0.02 0.00 0.00 0.00 0.01 0.01 0.01 0.01 0.00 0.00 0.00 0.00 0.03 0.05 0.02 0.01 0.00 0.00 0.00 0.00 0.00 0.00 0.00 0.00 0.00 0.00 0.00 0.00 0.00 0.00 0.00 0.00 0.00 0.00 0.00 0.00 0.00
0.49 0.29 0.14 0.15 0.14 0.05 0.00 0.00 0.00 0.00 0.00 0.00 0.00 0.00 0.00 0.00 0.00 0.00 0.01 0.03 0.02 0.00 0.00 0.00 0.00 0.00 0.00 0.00 0.00 0.00 0.00 0.00 0.00 0.00 0.00 0.00 0.00 0.00 0.00 0.00 0.00 0.00 0.00
0.68 0.41 0.17 0.12 0.09 0.03 0.00 0.00 0.00 0.00 0.00 0.00 0.00 0.00 0.00 0.00 0.00 0.00 0.00 0.00 0.01 0.01 0.00 0.00 0.00 0.00 0.00 0.00 0.00 0.00 0.00 0.00 0.00 0.00 0.00 0.00 0.00 0.00 0.00 0.00 0.00 0.00 0.00
0.18 0.17 0.19 0.18 0.13 0.08 0.03 0.01 0.00 0.00 0.00 0.00 0.00 0.00 0.00 0.00 0.00 0.00 0.00 0.00 0.00 0.00 0.00 0.00 0.00 0.00 0.00 0.00 0.00 0.00 0.00 0.00 0.00 0.00 0.00 0.00 0.00 0.00 0.00 0.00 0.00 0.00 0.00
0.03 0.03 0.06 0.06 0.08 0.08 0.06 0.03 0.01 0.00 0.00 0.00 0.00 0.00 0.00 0.00 0.00 0.00 0.00 0.00 0.00 0.00 0.00 0.00 0.00 0.00 0.00 0.00 0.00 0.00 0.00 0.00 0.00 0.00 0.00 0.00 0.00 0.00 0.00 0.00 0.00 0.00 0.00
0.01 0.02 0.01 0.03 0.07 0.06 0.05 0.03 0.03 0.01 0.01 0.00 0.00 0.00 0.00 0.00 0.00 0.00 0.00 0.00 0.00 0.00 0.00 0.00 0.00 0.00 0.00 0.00 0.00 0.00 0.00 0.00 0.00 0.00 0.00 0.00 0.00 0.00 0.00 0.00 0.00 0.00 0.00
0.00 0.00 0.00 0.00 0.00 0.02 0.03 0.02 0.02 0.02 0.02 0.00 0.00 0.00 0.00 0.00 0.00 0.00 0.00 0.00 0.00 0.00 0.00 0.00 0.00 0.00 0.00 0.00 0.00 0.00 0.00 0.00 0.00 0.00 0.00 0.00 0.00 0.00 0.00 0.00 0.00 0.00 0.00
0.00 0.00 0.00 0.00 0.00 0.00 0.00 0.00 0.00 0.00 0.01 0.01 0.00 0.00 0.00 0.00 0.00 0.00 0.00 0.00 0.00 0.00 0.00 0.00 0.00 0.00 0.00 0.00 0.00 0.00 0.00 0.00 0.00 0.00 0.00 0.00 0.00 0.00 0.00 0.00 0.00 0.00 0.00
0.00 0.00 0.00 0.00 0.00 0.00 0.00 0.00 0.00 0.00 0.00 0.00 0.00 0.00 0.00 0.00 0.00 0.00 0.00 0.00 0.00 0.00 0.00 0.00 0.00 0.00 0.00 0.00 0.00 0.00 0.00 0.00 0.00 0.00 0.00 0.00 0.00 0.00 0.00 0.00 0.00 0.00 0.00
0.00 0.00 0.00 0.00 0.00 0.00 0.00 0.00 0.00 0.00 0.00 0.00 0.00 0.00 0.00 0.00 0.00 0.00 0.00 0.00 0.00 0.00 0.00 0.00 0.00 0.00 0.00 0.00 0.00 0.00 0.00 0.00 0.00 0.00 0.00 0.00 0.00 0.00 0.00 0.00 0.00 0.00 0.00
0.00 0.00 0.00 0.00 0.00 0.00 0.00 0.00 0.00 0.00 0.00 0.00 0.00 0.00 0.00 0.00 0.00 0.00 0.00 0.00 0.00 0.00 0.00 0.00 0.00 0.00 0.00 0.00 0.00 0.00 0.00 0.00 0.00 0.00 0.00 0.00 0.00 0.00 0.00 0.00 0.00 0.00 0.00
0.00 0.00 0.00 0.00 0.00 0.00 0.00 0.00 0.00 0.00 0.00 0.00 0.00 0.00 0.00 0.00 0.00 0.00 0.00 0.00 0.00 0.00 0.00 0.00 0.00 0.00 0.00 0.00 0.00 0.00 0.00 0.00 0.00 0.00 0.00 0.00 0.00 0.00 0.00 0.00 0.00 0.00 0.00
0.00 0.00 0.00 0.00 0.00 0.00 0.00 0.00 0.00 0.00 0.00 0.00 0.00 0.00 0.00 0.00 0.00 0.00 0.00 0.00 0.00 0.00 0.00 0.00 0.00 0.00 0.00 0.00 0.00 0.00 0.00 0.00 0.00 0.00 0.00 0.00 0.00 0.00 0.00 0.00 0.00 0.00 0.00
0.00 0.00 0.00 0.00 0.00 0.00 0.00 0.00 0.00 0.00 0.00 0.00 0.00 0.00 0.00 0.00 0.00 0.00 0.00 0.00 0.00 0.00 0.00 0.00 0.00 0.00 0.00 0.00 0.00 0.00 0.00 0.00 0.00 0.00 0.00 0.00 0.00 0.00 0.00 0.00 0.00 0.00 0.00
0.00 0.00 0.00 0.00 0.00 0.00 0.00 0.00 0.00 0.00 0.00 0.00 0.00 0.00 0.00 0.00 0.00 0.00 0.00 0.00 0.00 0.00 0.00 0.00 0.00 0.00 0.00 0.00 0.00 0.00 0.00 0.00 0.00 0.00 0.00 0.00 0.00 0.00 0.00 0.00 0.00 0.00 0.00
0.00 0.00 0.00 0.00 0.00 0.00 0.00 0.00 0.00 0.00 0.00 0.00 0.00 0.00 0.00 0.00 0.00 0.00 0.00 0.00 0.00 0.00 0.00 0.00 0.00 0.00 0.00 0.00 0.00 0.00 0.00 0.00 0.00 0.00 0.00 0.00 0.00 0.00 0.00 0.00 0.00 0.00 0.00
0.00 0.00 0.00 0.00 0.00 0.00 0.00 0.00 0.00 0.00 0.00 0.00 0.00 0.00 0.00 0.00 0.00 0.00 0.00 0.00 0.00 0.00 0.00 0.00 0.00 0.00 0.00 0.00 0.00 0.00 0.00 0.00 0.00 0.00 0.00 0.00 0.00 0.00 0.00 0.00 0.00 0.00 0.00
MSLP
1017.00 1017.37 1017.51 1017.95 1018.33 1018.62 1018.99 1019.29 1019.59 1019.80 1019.80 1019.75 1019.77 1020.01 1020.27 1020.05 1019.82 1020.07 1020.30 1020.37 1020.41 1020.53 1020.55 1020.51 1020.47 1020.60 1020.78 1020.75 1020.82 1020.85 1020.87 1020.69 1020.88 1020.55 1020.39 1019.51 1019.36 1019.10 1018.57 1017.91 1017.63 1017.34 1017.25
1016.43 1016.77 1017.13 1017.40 1018.00 1018.38 1018.63 1018.65 1018.88 1019.24 1019.25 1019.39 1019.68 1019.96 1020.13 1020.29 1020.10 1020.19 1020.25 1020.25 1020.26 1020.41 1020.47 1020.51 1020.50 1020.49 1020.62 1020.77 1020.87 1020.85 1020.79 1020.53 1020.57 1020.68 1020.39 1019.77 1019.47 1019.03 1018.82 1018.59 1018.29 1017.87 1017.72
1016.11 1016.74 1016.92 1017.15 1017.71 1017.97 1018.41 1018.53 1018.63 1018.77 1019.01 1019.17 1019.39 1019.71 1019.93 1020.13 1020.35 1020.31 1020.32 1020.27 1020.11 1020.17 1020.33 1020.38 1020.30 1020.27 1020.42 1020.57 1020.63 1020.74 1020.83 1020.94 1020.73 1020.61 1020.47 1019.98 1019.52 1019.37 1019.03 1018.95 1018.78 1018.44 1017.95
1016.05 1016.71 1017.08 1017.07 1017.16 1017.40 1017.70 1018.31 1018.63 1018.71 1018.87 1019.16 1019.36 1019.56 1020.09 1020.20 1020.22 1020.25 1020.28 1020.22 1020.29 1020.34 1020.41 1020.14 1020.13 1020.23 1020.35 1020.44 1020.53 1020.61 1020.59 1020.72 1020.67 1020.58 1020.56 1020.46 1020.27 1019.86 1019.75 1019.73 1019.22 1018.75 1018.23
1015.57 1016.27 1016.97 1016.85 1016.79 1017.21 1017.82 1018.27 1018.75 1018.81 1019.01 1019.05 1019.31 1019.86 1020.18 1020.13 1020.50 1020.75 1020.47 1020.26 1020.14 1020.32 1020.39 1020.32 1020.21 1020.11 1020.19 1020.36 1020.47 1020.49 1020.45 1020.63 1020.75 1020.75 1020.87 1020.84 1020.71 1020.47 1020.31 1020.11 1019.74 1019.27 1018.72
1014.75 1016.05 1016.74 1016.93 1017.08 1017.13 1017.33 1017.82 1018.19 1018.75 1019.11 1019.35 1019.49 1019.71 1020.24 1020.59 1020.87 1020.67 1020.45 1020.46 1020.28 1020.35 1020.56 1020.59 1020.46 1020.35 1020.33 1020.35 1020.38 1020.28 1020.46 1020.67 1020.84 1020.87 1021.03 1021.21 1020.96 1020.77 1020.51 1020.54 1020.27 1019.87 1019.53
1015.26 1015.97 1016.35 1016.37 1016.99 1017.35 1017.39 1017.68 1018.01 1018.60 1019.27 1019.77 1019.93 1020.25 1020.97 1020.92 1020.89 1020.80 1020.49 1020.35 1020.24 1020.36 1020.49 1020.70 1020.90 1020.95 1020.59 1020.56 1020.52 1020.56 1020.65 1020.66 1020.79 1020.76 1020.87 1020.80 1020.77 1020.59 1020.51 1020.54 1020.35 1020.08 1019.92
1015.49 1015.11 1015.71 1016.35 1017.03 1017.39 1017.40 1017.51 1017.75 1018.25 1018.81 1019.58 1020.11 1020.19 1020.93 1021.31 1020.97 1020.57 1020.32 1020.34 1020.53 1020.56 1020.62 1020.78 1020.93 1021.09 1021.07 1020.92 1020.92 1021.12 1021.19 1021.06 1020.84 1020.61 1020.54 1020.41 1020.25 1020.13 1020.22 1020.10 1020.06 1019.81 1019.51
1015.23 1015.35 1015.82 1016.19 1017.06 1017.49 1017.54 1017.66 1017.85 1018.39 1019.00 1019.55 1019.95 1020.66 1021.43 1021.60 1021.09 1020.38 1020.27 1020.52 1020.88 1021.06 1021.12 1021.21 1021.16 1021.27 1021.39 1020.88 1021.11 1021.37 1021.44 1021.16 1020.59 1020.55 1020.34 1020.32 1020.31 1020.28 1020.07 1020.01 1020.11 1020.01 1020.13
1015.37 1015.50 1015.79 1016.28 1016.95 1017.36 1017.73 1018.01 1018.22 1018.75 1019.25 1019.60 1020.33 1020.93 1021.47 1021.15 1020.80 1020.64 1020.63 1020.95 1021.24 1021.31 1021.52 1021.70 1021.48 1021.73 1021.68 1021.49 1021.48 1021.53 1021.63 1021.71 1021.26 1020.74 1020.69 1020.59 1020.65 1020.65 1020.51 1020.57 1020.67 1020.59 1021.07
1014.75 1015.87 1015.96 1016.55 1017.16 1017.79 1018.03 1018.32 1018.71 1019.25 1020.03 1020.53 1020.96 1021.08 1020.97 1020.88 1020.95 1021.00 1020.91 1021.17 1021.11 1021.35 1021.66 1022.12 1022.22 1021.95 1021.89 1021.87 1021.67 1021.82 1021.97 1021.83 1021.72 1021.67 1021.71 1021.62 1021.47 1021.41 1021.38 1021.41 1021.60 1021.46 1021.93
1016.05 1015.52 1014.95 1016.68 1017.61 1018.14 1018.36 1018.87 1019.07 1019.31 1020.27 1021.06 1021.21 1021.08 1021.28 1021.42 1021.30 1021.55 1021.51 1021.31 1021.37 1021.44 1021.87 1022.30 1022.35 1022.28 1022.28 1022.01 1021.91 1022.22 1022.28 1022.19 1022.32 1022.51 1022.71 1022.85 1022.91 1022.79 1022.61 1022.24 1022.12 1022.24 1022.72
1017.52 1017.82 1018.03 1018.32 1018.74 1018.99 1019.25 1019.61 1019.93 1019.99 1020.65 1021.01 1021.30 1021.63 1021.72 1021.81 1022.25 1022.17 1022.22 1022.15 1021.95 1021.99 1021.96 1022.30 1022.71 1022.78 1022.57 1022.59 1022.47 1022.27 1022.32 1022.73 1023.29 1023.33 1023.47 1023.65 1023.65 1023.65 1023.37 1023.20 1022.87 1023.11 1023.06
1018.85 1019.11 1019.44 1019.64 1020.07 1020.45 1020.67 1020.86 1020.98 1021.37 1021.55 1021.40 1021.47 1021.82 1022.07 1022.28 1022.63 1022.71 1022.90 1022.81 1022.51 1022.70 1022.42 1022.35 1022.57 1022.81 1023.15 1023.23 1023.19 1023.17 1023.35 1023.37 1023.45 1023.93 1024.25 1024.14 1024.03 1023.90 1023.90 1024.07 1023.77 1023.54 1023.73
1019.48 1020.05 1020.21 1020.63 1020.76 1021.40 1021.95 1022.24 1022.65 1022.67 1022.54 1022.49 1022.02 1021.67 1022.39 1022.70 1023.14 1023.30 1023.47 1023.51 1023.29 1023.06 1023.32 1023.21 1023.27 1023.32 1023.50 1023.94 1024.14 1024.03 1024.02 1024.10 1024.19 1024.36 1024.43 1024.57 1024.61 1024.69 1024.67 1024.53 1024.70 1024.69 1024.93
1020.25 1020.60 1020.83 1020.92 1021.38 1021.72 1022.35 1022.84 1023.31 1023.37 1023.08 1022.86 1022.65 1022.10 1022.75 1022.73 1023.14 1023.67 1023.75 1023.64 1023.40 1023.29 1023.23 1023.47 1023.63 1023.85 1023.85 1024.21 1024.73 1024.78 1024.67 1024.65 1024.92 1025.13 1025.25 1025.23 1025.16 1025.11 1025.07 1025.21 1025.57 1025.37 1025.77
1021.11 1021.05 1021.11 1021.43 1021.37 1021.62 1022.15 1022.58 1023.01 1023.53 1023.34 1023.49 1023.09 1022.71 1022.35 1023.09 1023.25 1023.46 1023.45 1023.36 1023.35 1023.13 1023.47 1023.53 1023.55 1023.71 1024.19 1024.30 1024.43 1024.88 1025.39 1025.56 1025.55 1025.57 1025.99 1026.08 1025.87 1025.87 1026.02 1025.86 1025.89 1025.93 1026.42
1020.91 1020.93 1021.25 1021.15 1021.30 1021.75 1022.01 1022.47 1022.47 1023.17 1023.23 1023.39 1023.96 1023.62 1023.11 1023.54 1023.65 1023.39 1023.33 1022.66 1023.14 1023.11 1023.49 1023.67 1023.85 1024.05 1024.55 1024.70 1024.86 1025.12 1025.56 1025.84 1026.24 1026.21 1026.39 1026.73 1026.76 1026.52 1026.59 1026.92 1026.86 1026.83 1026.78
1021.56 1021.55 1021.54 1021.55 1021.83 1021.93 1022.13 1022.12 1022.61 1022.78 1022.85 1023.49 1023.81 1023.64 1023.48 1023.42 1023.39 1023.39 1022.92 1023.03 1023.34 1023.07 1023.21 1023.67 1023.86 1024.35 1024.51 1024.91 1025.18 1025.35 1025.74 1026.07 1026.45 1026.38 1026.85 1027.16 1027.19 1027.30 1027.51 1027.60 1027.36 1027.42 1027.45
1021.71 1021.75 1021.92 1022.26 1022.39 1022.55 1022.59 1022.49 1022.64 1022.44 1022.87 1023.16 1023.21 1023.13 1023.17 1023.29 1023.35 1022.92 1023.09 1022.99 1022.88 1023.43 1023.43 1023.72 1024.07 1024.19 1024.67 1025.09 1025.33 1025.61 1026.03 1026.22 1026.55 1026.65 1027.04 1027.28 1027.49 1027.82 1028.11 1028.04 1027.76 1027.80 1027.87
1021.93 1022.03 1021.93 1022.15 1022.29 1022.39 1022.55 1022.50 1022.52 1022.59 1022.83 1023.21 1023.34 1023.10 1022.90 1022.79 1023.07 1023.21 1023.24 1023.08 1023.21 1023.47 1023.64 1023.80 1024.33 1024.33 1024.57 1024.86 1025.27 1025.85 1026.24 1026.61 1026.64 1026.82 1027.01 1027.11 1027.65 1027.92 1028.04 1028.14 1027.89 1027.84 1027.85
1021.88 1022.11 1022.23 1022.23 1022.23 1022.47 1022.65 1022.63 1022.60 1022.76 1022.79 1022.76 1022.93 1022.87 1022.85 1023.01 1023.01 1022.88 1023.00 1023.11 1023.04 1023.21 1023.35 1023.64 1024.13 1024.17 1024.24 1024.71 1025.23 1025.81 1026.33 1026.55 1026.57 1026.97 1027.47 1027.72 1028.09 1028.19 1027.88 1027.92 1028.15 1028.10 1027.96
1021.57 1021.91 1022.15 1022.11 1022.17 1022.33 1022.39 1022.31 1022.52 1022.64 1022.75 1022.79 1022.73 1022.79 1022.94 1022.97 1022.83 1022.81 1022.86 1022.93 1022.93 1023.09 1023.36 1023.73 1024.11 1024.32 1024.26 1024.49 1025.02 1025.66 1026.15 1026.54 1026.68 1026.96 1027.33 1027.81 1028.18 1028.14 1027.85 1027.73 1027.91 1027.86 1027.79
1021.12 1021.33 1021.64 1021.90 1022.03 1022.07 1022.02 1022.09 1022.09 1022.08 1022.10 1022.31 1022.56 1022.52 1022.57 1022.55 1022.58 1022.53 1022.49 1022.85 1022.84 1022.80 1023.04 1023.39 1023.71 1024.17 1024.41 1024.67 1025.04 1025.45 1025.93 1026.40 1026.51 1026.85 1027.01 1027.49 1027.75 1027.75 1027.70 1027.63 1027.67 1027.66 1027.66
1020.79 1020.95 1021.08 1021.31 1021.47 1021.48 1021.53 1021.64 1021.74 1021.88 1021.75 1021.77 1021.91 1022.07 1021.97 1022.00 1022.07 1022.05 1022.15 1022.21 1022.58 1022.82 1022.91 1023.11 1023.37 1023.84 1024.17 1024.53 1024.85 1025.19 1025.51 1025.88 1026.09 1026.42 1026.85 1027.11 1027.12 1027.06 1027.26 1027.37 1027.27 1027.21 1027.25
1020.31 1020.43 1020.65 1020.87 1020.85 1020.79 1020.88 1021.00 1020.99 1021.18 1021.40 1021.13 1021.01 1021.27 1021.33 1021.45 1021.47 1021.53 1021.65 1021.88 1022.22 1022.49 1022.75 1023.03 1023.11 1023.37 1023.85 1024.12 1024.25 1024.62 1025.08 1025.38 1025.71 1026.06 1026.34 1026.55 1026.73 1026.90 1027.01 1027.03 1026.98 1027.12 1027.11
Thickness
5782 5782 5784 5782 5780 5780 5779 5779 5776 5774 5774 5774 5775 5772 5770 5773 5775 5775 5772 5772 5770 5768 5769 5770 5771 5770 5767 5768 5767 5766 5764 5765 5758 5764 5766 5771 5772 5774 5776 5782 5783 5782 5780
5783 5782 5782 5784 5780 5778 5778 5780 5781 5778 5777 5777 5776 5772 5771 5770 5773 5772 5771 5772 5772 5769 5768 5768 5768 5770 5767 5765 5763 5763 5764 5765 5762 5758 5763 5769 5772 5777 5777 5777 5775 5776 5776
5782 5778 5779 5781 5780 5779 5778 5779 5780 5779 5777 5775 5775 5773 5772 5771 5769 5769 5769 5769 5771 5770 5769 5767 5768 5768 5767 5765 5764 5763 5762 5760 5761 5762 5762 5768 5771 5771 5771 5771 5771 5772 5774
5776 5772 5771 5774 5778 5779 5779 5776 5774 5775 5774 5772 5772 5772 5767 5767 5767 5766 5765 5766 5767 5766 5765 5768 5767 5765 5764 5763 5762 5761 5762 5760 5761 5761 5761 5760 5760 5765 5765 5762 5762 5769 5770
5773 5767 5765 5768 5774 5774 5770 5768 5766 5768 5768 5769 5769 5765 5763 5763 5760 5756 5760 5763 5765 5764 5764 5764 5763 5763 5763 5762 5758 5758 5758 5757 5755 5755 5754 5755 5755 5756 5755 5756 5757 5762 5766
5769 5761 5757 5762 5763 5765 5768 5766 5766 5761 5760 5760 5761 5760 5755 5754 5753 5754 5757 5759 5761 5759 5758 5757 5757 5758 5759 5757 5757 5755 5755 5752 5750 5750 5749 5747 5750 5752 5753 5751 5753 5753 5751
5762 5757 5757 5761 5757 5757 5760 5761 5760 5755 5752 5749 5750 5748 5743 5744 5747 5750 5753 5755 5756 5754 5754 5751 5749 5749 5751 5751 5750 5749 5748 5748 5749 5750 5747 5747 5745 5746 5747 5747 5748 5749 5747
5754 5762 5759 5754 5751 5749 5752 5754 5755 5752 5749 5745 5742 5742 5736 5733 5738 5744 5749 5750 5747 5746 5745 5745 5742 5742 5743 5744 5743 5740 5739 5740 5741 5744 5745 5747 5746 5745 5744 5744 5744 5747 5752
5750 5751 5749 5749 5743 5743 5744 5745 5747 5743 5741 5738 5736 5732 5726 5725 5730 5739 5742 5739 5736 5733 5732 5733 5734 5734 5734 5737 5734 5731 5730 5732 5737 5738 5739 5741 5740 5738 5737 5737 5735 5736 5736
5742 5745 5744 5741 5737 5735 5734 5736 5739 5735 5732 5731 5726 5723 5721 5724 5727 5729 5732 5727 5724 5723 5719 5718 5722 5723 5723 5724 5723 5721 5720 5718 5721 5727 5728 5728 5727 5726 5726 5723 5724 5724 5717
5735 5736 5736 5731 5728 5724 5724 5728 5726 5724 5720 5717 5715 5716 5719 5720 5719 5718 5719 5717 5716 5714 5710 5708 5708 5711 5712 5711 5711 5710 5710 5710 5709 5709 5711 5712 5713 5713 5711 5711 5709 5707 5701
5721 5715 5718 5722 5718 5716 5716 5716 5717 5718 5711 5706 5707 5710 5709 5707 5709 5706 5705 5707 5706 5705 5701 5698 5698 5700 5701 5702 5702 5700 5700 5699 5698 5696 5695 5695 5693 5694 5695 5699 5698 5693 5687
5703 5700 5705 5704 5703 5703 5704 5704 5705 5707 5704 5704 5701 5698 5697 5697 5693 5694 5694 5693 5694 5693 5694 5690 5687 5688 5689 5689 5690 5693 5693 5689 5682 5683 5682 5680 5678 5677 5677 5679 5683 5681 5681
5684 5686 5687 5686 5685 5684 5684 5686 5689 5689 5692 5696 5695 5690 5688 5687 5684 5682 5679 5681 5684 5682 5683 5684 5683 5680 5675 5674 5676 5676 5675 5675 5674 5669 5665 5666 5668 5667 5665 5662 5663 5664 5662
5674 5671 5671 5670 5672 5668 5664 5667 5667 5668 5673 5677 5680 5683 5676 5675 5672 5671 5670 5668 5670 5673 5669 5668 5668 5667 5666 5662 5659 5660 5660 5659 5658 5657 5656 5653 5652 5650 5649 5649 5645 5643 5639
5657 5658 5657 5658 5655 5655 5652 5652 5650 5651 5655 5659 5661 5666 5660 5661 5659 5656 5656 5657 5659 5660 5660 5658 5654 5654 5653 5650 5646 5644 5645 5646 5642 5638 5637 5636 5636 5635 5633 5630 5626 5626 5621
5636 5640 5640 5642 5645 5645 5642 5641 5639 5635 5638 5638 5642 5646 5649 5645 5643 5643 5643 5645 5645 5647 5644 5645 5644 5643 5638 5636 5635 5632 5627 5625 5623 5621 5618 5617 5618 5616 5612 5611 5609 5608 5603
5626 5627 5627 5630 5630 5629 5629 5628 5630 5624 5624 5623 5619 5622 5629 5627 5626 5629 5630 5634 5633 5633 5628 5627 5625 5624 5620 5619 5618 5616 5612 5608 5602 5601 5600 5596 5594 5594 5592 5587 5586 5584 5583
5607 5608 5609 5609 5607 5609 5609 5612 5611 5611 5610 5605 5604 5606 5608 5610 5611 5611 5616 5617 5614 5615 5614 5610 5609 5604 5603 5600 5598 5596 5592 5588 5584 5583 5578 5574 5572 5570 5566 5564 5565 5563 5561
5594 5596 5594 5591 5591 5591 5590 5592 5592 5596 5594 5593 5591 5591 5591 5592 5593 5598 5599 5598 5599 5595 5594 5591 5587 5584 5582 5580 5579 5576 5570 5568 5565 5564 5560 5556 5553 5548 5543 5541 5542 5541 5538
5578 5578 5580 5578 5578 5577 5575 5576 5576 5577 5575 5571 5570 5572 5573 5575 5574 5575 5577 5578 5576 5573 5571 5569 5564 5565 5561 5559 5559 5553 5547 5543 5544 5541 5539 5537 5531 5526 5522 5519 5521 5519 5518
5568 5566 5564 5565 5563 5560 5558 5557 5558 5557 5559 5558 5556 5555 5554 5553 5554 5556 5556 5553 5554 5552 5551 5550 5546 5545 5543 5538 5536 5531 5523 5521 5521 5517 5512 5510 5506 5504 5505 5503 5498 5497 5497
5560 5557 5555 5554 5553 5550 5548 5548 5545 5543 5542 5543 5542 5541 5539 5538 5537 5538 5537 5536 5533 5532 5530 5529 5526 5523 5520 5519 5516 5509 5505 5503 5502 5498 5494 5489 5485 5485 5487 5487 5483 5482 5481
5554 5551 5547 5543 5541 5540 5538 5536 5536 5534 5534 5533 5530 5529 5527 5526 5525 5526 5526 5520 5518 5518 5514 5512 5510 5506 5501 5498 5495 5492 5488 5484 5483 5480 5479 5475 5472 5471 5471 5470 5467 5465 5463
5544 5542 5541 5538 5533 5531 5530 5525 5523 5520 5520 5521 5519 5516 5515 5515 5513 5513 5512 5510 5505 5502 5501 5499 5496 5493 5489 5485 5482 5479 5476 5473 5472 5469 5465 5462 5461 5461 5458 5455 5453 5451 5448
5536 5533 5529 5526 5526 5526 5523 5521 5519 5513 5508 5511 5512 5507 5504 5502 5501 5500 5499 5496 5493 5489 5486 5483 5483 5480 5474 5472 5471 5468 5464 5462 5459 5455 5453 5452 5449 5446 5443 5440 5439 5434 5430